EW8830 Weather Reports


time (UTC)temp
F
wind
direction
speed
knots
gust
knots
rain 1hr
in
rain 24hr
in
rain mn
in
humidity
%
barometer
mb
20260508040005 44 0 0.0 0.0 0.00 0.00 0.00 69 1013.0
20260508035503 44 0 0.0 0.0 0.00 0.00 0.00 69 1012.9
20260508035004 44 0 0.0 0.0 0.00 0.00 0.00 68 1013.0
20260508034004 44 0 0.0 0.0 0.00 0.00 0.00 67 1012.9
20260508033504 44 0 0.0 0.0 0.00 0.00 0.00 67 1012.9
20260508033003 44 0 0.0 0.0 0.00 0.00 0.00 66 1013.0
20260508032503 45 0 0.0 0.0 0.00 0.00 0.00 65 1013.0
20260508032003 45 0 0.0 0.0 0.00 0.00 0.00 65 1013.0
20260508031503 45 0 0.0 0.0 0.00 0.00 0.00 64 1013.1
20260508031003 46 0 0.0 0.0 0.00 0.00 0.00 63 1013.1
20260508030503 46 0 0.0 0.0 0.00 0.00 0.00 62 1013.0
20260508030004 46 0 0.0 0.0 0.00 0.00 0.00 61 1013.0
20260508025503 46 140 0.0 0.9 0.00 0.00 0.00 61 1013.0
20260508025004 46 140 0.0 0.9 0.00 0.00 0.00 60 1013.1
20260508024504 46 0 0.0 0.0 0.00 0.00 0.00 60 1013.0
20260508024004 46 0 0.0 0.0 0.00 0.00 0.00 59 1013.0
20260508023504 47 0 0.0 0.0 0.00 0.00 0.00 55 1012.9
20260508023003 47 0 0.0 0.0 0.00 0.00 0.00 55 1013.0
20260508022003 48 0 0.0 0.0 0.00 0.00 0.00 53 1012.9
20260508021504 48 0 0.0 0.0 0.00 0.00 0.00 53 1013.0
20260508021004 48 0 0.0 0.0 0.00 0.00 0.00 53 1012.9
20260508020504 49 0 0.0 0.0 0.00 0.00 0.00 51 1012.8
20260508020003 49 0 0.0 0.0 0.00 0.00 0.00 50 1012.9
20260508015503 49 0 0.0 0.0 0.00 0.00 0.00 50 1012.9
20260508015003 50 0 0.0 0.0 0.00 0.00 0.00 49 1012.8
20260508014503 50 0 0.0 0.0 0.00 0.00 0.00 48 1012.9
20260508014004 50 346 0.0 0.9 0.00 0.00 0.00 47 1012.7
20260508013504 50 350 0.0 0.9 0.00 0.00 0.00 46 1012.7
20260508013004 51 354 0.0 0.9 0.00 0.00 0.00 45 1012.6
20260508012503 51 353 0.0 0.9 0.00 0.00 0.00 45 1012.7
20260508012003 51 0 0.0 0.0 0.00 0.00 0.00 43 1012.4
20260508011503 51 0 0.0 0.0 0.00 0.00 0.00 43 1012.4
20260508011003 52 0 0.0 0.0 0.00 0.00 0.00 42 1012.4
20260508010504 52 294 0.0 0.9 0.00 0.00 0.00 42 1012.5
20260508010004 52 294 0.0 0.9 0.00 0.00 0.00 41 1012.5
20260508005503 52 0 0.0 0.0 0.00 0.00 0.00 41 1012.1
20260508004503 52 0 0.0 0.0 0.00 0.00 0.00 40 1012.2
20260508004004 53 340 0.0 1.7 0.00 0.00 0.00 40 1012.2
20260508003504 53 340 0.0 1.7 0.00 0.00 0.00 40 1012.1
20260508003005 53 335 0.0 0.9 0.00 0.00 0.00 39 1011.9
20260508002504 53 309 0.0 1.7 0.00 0.00 0.00 39 1012.1
20260508002003 54 291 0.0 1.7 0.00 0.00 0.00 39 1011.9
20260508001503 54 295 0.0 1.7 0.00 0.00 0.00 39 1011.7
20260508001003 54 232 0.0 5.2 0.00 0.00 0.00 38 1011.7
20260508000504 54 228 0.0 5.2 0.00 0.00 0.00 39 1011.7
20260508000005 54 27 0.0 1.7 0.00 0.00 0.00 40 1011.6
20260507235503 54 0 0.0 0.0 0.00 0.00 0.00 42 1011.5
20260507234003 54 0 0.0 0.0 0.00 0.00 0.00 45 1011.4
20260507233503 54 303 0.0 2.6 0.00 0.00 0.00 47 1011.4
20260507233004 54 303 0.0 2.6 0.00 0.00 0.00 48 1011.4
20260507232504 55 253 0.0 7.0 0.00 0.00 0.00 48 1011.3
20260507232003 55 275 0.0 7.0 0.00 0.00 0.00 48 1011.3
20260507231003 55 0 0.0 0.0 0.00 0.00 0.00 48 1011.3
20260507230504 55 11 0.0 3.5 0.00 0.00 0.00 48 1011.4
20260507230004 55 20 0.0 3.5 0.00 0.00 0.00 48 1011.2
20260507225504 55 276 0.0 2.6 0.00 0.00 0.00 48 1011.3
20260507225004 55 265 0.0 1.7 0.00 0.00 0.00 48 1011.3
20260507224504 56 281 0.0 0.9 0.00 0.00 0.00 47 1011.2
20260507224003 56 316 0.0 0.9 0.00 0.00 0.00 47 1011.1
20260507223503 56 339 0.0 6.1 0.00 0.00 0.00 47 1011.1
20260507223003 55 351 0.9 13.0 0.00 0.00 0.00 47 1011.1
20260507222504 55 341 0.9 13.0 0.00 0.00 0.00 47 1011.1
20260507222004 56 345 0.0 9.6 0.00 0.00 0.00 46 1010.8
20260507221504 56 15 0.0 7.8 0.00 0.00 0.00 45 1010.8
20260507221004 56 252 0.0 1.7 0.00 0.00 0.00 44 1010.7
20260507220504 56 163 0.0 1.7 0.00 0.00 0.00 43 1010.6
20260507220003 57 115 0.0 0.9 0.00 0.00 0.00 42 1010.6
20260507215503 57 0 0.0 0.0 0.00 0.00 0.00 41 1010.6
20260507215003 57 264 0.0 4.3 0.00 0.00 0.00 41 1010.4
20260507214503 57 264 0.0 4.3 0.00 0.00 0.00 40 1010.4
20260507214004 57 0 0.0 0.0 0.00 0.00 0.00 40 1010.3
20260507213504 58 247 0.0 0.9 0.00 0.00 0.00 41 1010.2
20260507213003 58 247 0.0 0.9 0.00 0.00 0.00 40 1010.2
20260507212003 58 0 0.0 0.0 0.00 0.00 0.00 39 1010.0
20260507211504 58 0 0.0 0.0 0.00 0.00 0.00 40 1010.1
20260507210504 59 270 0.0 1.7 0.00 0.00 0.00 39 1010.0
20260507210005 59 276 0.0 5.2 0.00 0.00 0.00 39 1009.9
20260507205503 59 276 0.0 5.2 0.00 0.00 0.00 40 1010.0
20260507205003 60 0 0.0 0.0 0.00 0.00 0.00 40 1010.0
20260507204503 59 0 0.0 0.0 0.00 0.00 0.00 40 1009.9
20260507204003 59 0 0.0 0.0 0.00 0.00 0.00 40 1010.0
20260507203503 59 0 0.0 0.0 0.00 0.00 0.00 39 1010.0
20260507202504 58 244 0.0 3.5 0.00 0.00 0.00 38 1009.9
20260507202004 58 247 0.0 3.5 0.00 0.00 0.00 38 1009.9
20260507201504 58 265 0.0 0.9 0.00 0.00 0.00 40 1010.0
20260507201003 58 227 0.0 2.6 0.00 0.00 0.00 39 1010.1
20260507200503 58 263 0.0 6.1 0.00 0.00 0.00 39 1010.1
20260507195004 58 218 0.0 1.7 0.00 0.00 0.00 38 1010.2
20260507194504 58 218 0.0 1.7 0.00 0.00 0.00 38 1010.2
20260507194003 58 262 0.0 5.2 0.00 0.00 0.00 39 1010.2
20260507193503 58 265 0.0 5.2 0.00 0.00 0.00 38 1010.2
20260507193003 58 283 0.0 2.6 0.00 0.00 0.00 39 1010.2
20260507192503 58 262 0.0 1.7 0.00 0.00 0.00 39 1010.3
20260507192003 58 262 0.0 1.7 0.00 0.00 0.00 38 1010.2
20260507191504 58 326 0.0 0.9 0.00 0.00 0.00 39 1010.3
20260507191004 58 281 0.0 7.0 0.00 0.00 0.00 39 1010.4
20260507190503 58 282 0.0 7.0 0.00 0.00 0.00 38 1010.3
20260507190004 58 284 0.0 5.2 0.00 0.00 0.00 38 1010.1
20260507185503 58 272 0.0 7.8 0.00 0.00 0.00 39 1010.2
20260507184504 58 275 0.0 2.6 0.00 0.00 0.00 38 1010.2
20260507183503 58 275 0.0 2.6 0.00 0.00 0.00 39 1010.3
20260507183003 58 275 0.0 2.6 0.00 0.00 0.00 38 1010.4
20260507182504 59 0 0.0 0.0 0.00 0.00 0.00 37 1010.4
20260507182004 59 263 0.0 1.7 0.00 0.00 0.00 38 1010.4
20260507181003 58 275 0.0 8.7 0.00 0.00 0.00 39 1010.4
20260507180503 58 0 0.0 0.0 0.00 0.00 0.00 38 1010.3
20260507180004 59 272 0.0 5.2 0.00 0.00 0.00 37 1010.5
20260507175503 59 273 0.0 6.1 0.00 0.00 0.00 38 1010.4
20260507175004 59 276 0.0 6.1 0.00 0.00 0.00 38 1010.5
20260507174504 59 303 0.0 4.3 0.00 0.00 0.00 40 1010.6
20260507174004 58 267 0.9 9.6 0.00 0.00 0.00 40 1010.7
20260507173504 58 264 0.9 9.6 0.00 0.00 0.00 39 1010.7
20260507173004 59 244 0.0 4.3 0.00 0.00 0.00 38 1010.7
20260507172003 57 268 0.9 13.0 0.00 0.00 0.00 42 1010.8
20260507171503 57 268 0.9 13.0 0.00 0.00 0.00 41 1010.9
20260507171003 57 269 0.0 5.2 0.00 0.00 0.00 41 1010.9
20260507170503 57 275 0.0 5.2 0.00 0.00 0.00 42 1010.9
20260507170004 57 276 0.0 0.9 0.00 0.00 0.00 43 1010.9
20260507165504 57 278 0.0 4.3 0.00 0.00 0.00 42 1010.9
20260507165003 57 275 0.0 4.3 0.00 0.00 0.00 43 1011.0
20260507164504 57 280 0.0 2.6 0.00 0.00 0.00 43 1010.9
20260507164004 57 284 0.0 5.2 0.00 0.00 0.00 41 1010.9
20260507163503 57 282 0.0 5.2 0.00 0.00 0.00 43 1010.9
20260507163003 57 264 0.0 7.8 0.00 0.00 0.00 43 1010.9
20260507162504 57 263 0.0 7.8 0.00 0.00 0.00 43 1011.1
20260507162003 57 266 0.0 2.6 0.00 0.00 0.00 44 1011.0
20260507161503 57 249 0.0 7.0 0.00 0.00 0.00 44 1011.1
20260507161003 57 247 0.0 7.0 0.00 0.00 0.00 44 1011.0
20260507160503 56 255 0.0 1.7 0.00 0.00 0.00 44 1011.1
20260507155503 56 262 0.0 6.1 0.00 0.00 0.00 45 1011.3
20260507155003 56 270 0.0 7.0 0.00 0.00 0.00 47 1011.3
20260507154504 56 268 0.0 7.0 0.00 0.00 0.00 47 1011.3
20260507154004 56 274 0.0 8.7 0.00 0.00 0.00 45 1011.5
20260507153504 56 270 0.0 8.7 0.00 0.00 0.00 44 1011.4
20260507153003 56 266 0.0 7.8 0.00 0.00 0.00 44 1011.4
20260507152503 55 279 0.0 0.9 0.00 0.00 0.00 46 1011.4
20260507152003 55 279 0.0 0.9 0.00 0.00 0.00 46 1011.5
20260507151504 55 0 0.0 0.0 0.00 0.00 0.00 47 1011.5
20260507151003 56 0 0.0 0.0 0.00 0.00 0.00 44 1011.5
20260507150504 56 0 0.0 0.0 0.00 0.00 0.00 47 1011.6
20260507150004 56 0 0.0 0.0 0.00 0.00 0.00 46 1011.7
20260507145503 54 288 0.0 0.9 0.00 0.00 0.00 48 1011.8
20260507145003 54 277 0.0 5.2 0.00 0.00 0.00 49 1011.8
20260507144504 54 277 0.0 5.2 0.00 0.00 0.00 49 1011.7
20260507144004 54 198 0.0 1.7 0.00 0.00 0.00 49 1011.8
20260507143004 54 256 0.0 5.2 0.00 0.00 0.00 53 1011.8
20260507142003 55 217 0.0 0.9 0.00 0.00 0.00 52 1011.9
20260507141503 54 217 0.0 0.9 0.00 0.00 0.00 53 1012.1
20260507141004 54 217 0.0 0.9 0.00 0.00 0.00 54 1012.3
20260507140504 54 0 0.0 0.0 0.00 0.00 0.00 55 1012.3
20260507140004 54 283 0.0 2.6 0.00 0.00 0.00 56 1012.4
20260507135504 54 283 0.0 2.6 0.00 0.00 0.00 57 1012.5
20260507135004 54 284 0.0 0.9 0.00 0.00 0.00 58 1012.4
20260507134503 53 284 0.0 0.9 0.00 0.00 0.00 58 1012.4
20260507134003 53 0 0.0 0.0 0.00 0.00 0.00 58 1012.5
20260507133503 53 0 0.0 0.0 0.00 0.00 0.00 59 1012.6
20260507132503 53 0 0.0 0.0 0.00 0.00 0.00 59 1012.6
20260507132004 52 0 0.0 0.0 0.00 0.00 0.00 59 1012.8
20260507131004 53 0 0.0 0.0 0.00 0.00 0.00 60 1012.7
20260507130504 53 0 0.0 0.0 0.00 0.00 0.00 62 1012.6
20260507130004 52 176 0.0 0.9 0.00 0.00 0.00 64 1012.7
20260507125503 52 176 0.0 0.9 0.00 0.00 0.00 62 1012.7
20260507125003 52 0 0.0 0.0 0.00 0.00 0.00 67 1012.8
20260507124504 51 0 0.0 0.0 0.00 0.00 0.00 67 1012.7
20260507123003 50 0 0.0 0.0 0.00 0.00 0.00 73 1012.8
20260507122504 48 0 0.0 0.0 0.00 0.00 0.00 75 1012.8
20260507122004 47 0 0.0 0.0 0.00 0.00 0.00 79 1012.9
20260507121504 46 0 0.0 0.0 0.00 0.01 0.00 82 1012.9
20260507121003 44 0 0.0 0.0 0.00 0.01 0.00 83 1012.9
20260507120503 44 0 0.0 0.0 0.00 0.01 0.00 85 1012.9
20260507115504 42 0 0.0 0.0 0.00 0.01 0.00 87 1012.9
20260507114504 41 0 0.0 0.0 0.00 0.01 0.00 89 1013.0
20260507114003 41 0 0.0 0.0 0.00 0.01 0.00 89 1013.0
20260507113503 40 0 0.0 0.0 0.00 0.01 0.00 90 1012.9
20260507113004 40 0 0.0 0.0 0.00 0.01 0.00 90 1012.9
20260507112503 40 0 0.0 0.0 0.00 0.01 0.00 90 1013.0
20260507112003 40 0 0.0 0.0 0.00 0.01 0.00 90 1012.9
20260507110504 39 0 0.0 0.0 0.00 0.01 0.00 90 1012.7
20260507110004 39 0 0.0 0.0 0.00 0.01 0.00 90 1012.7
20260507105503 39 0 0.0 0.0 0.00 0.01 0.00 90 1012.8
20260507105004 39 0 0.0 0.0 0.00 0.02 0.00 90 1012.8
20260507104004 39 0 0.0 0.0 0.00 0.02 0.00 91 1012.6
20260507103504 39 0 0.0 0.0 0.00 0.03 0.00 91 1012.7
20260507103004 39 0 0.0 0.0 0.00 0.03 0.00 91 1012.6
20260507102503 38 0 0.0 0.0 0.00 0.04 0.00 91 1012.5
20260507102003 38 0 0.0 0.0 0.00 0.05 0.00 91 1012.5
20260507101003 38 0 0.0 0.0 0.00 0.08 0.00 91 1012.4
20260507100503 38 0 0.0 0.0 0.00 0.09 0.00 91 1012.3
20260507095504 38 0 0.0 0.0 0.00 0.12 0.00 91 1012.4
20260507095004 38 0 0.0 0.0 0.00 0.13 0.00 90 1012.4
20260507094504 38 0 0.0 0.0 0.00 0.14 0.00 90 1012.4
20260507094004 38 0 0.0 0.0 0.00 0.15 0.00 90 1012.4
20260507093504 38 0 0.0 0.0 0.00 0.16 0.00 90 1012.4
20260507093004 38 0 0.0 0.0 0.00 0.17 0.00 90 1012.4
20260507092003 39 0 0.0 0.0 0.00 0.18 0.00 90 1012.3
20260507091003 39 0 0.0 0.0 0.00 0.18 0.00 90 1012.5
20260507090503 39 0 0.0 0.0 0.00 0.19 0.00 89 1012.5
20260507090004 39 0 0.0 0.0 0.00 0.19 0.00 89 1012.5
20260507085503 39 0 0.0 0.0 0.00 0.19 0.00 89 1012.6
20260507085003 39 0 0.0 0.0 0.00 0.19 0.00 89 1012.5
20260507084503 39 0 0.0 0.0 0.00 0.20 0.00 89 1012.5
20260507083504 39 0 0.0 0.0 0.00 0.22 0.00 88 1012.7
20260507083004 39 0 0.0 0.0 0.00 0.23 0.00 88 1012.6
20260507082004 40 0 0.0 0.0 0.00 0.25 0.00 87 1012.7
20260507081003 40 0 0.0 0.0 0.00 0.28 0.00 87 1012.6
20260507080503 40 0 0.0 0.0 0.00 0.29 0.00 86 1012.5
20260507080003 40 0 0.0 0.0 0.00 0.30 0.00 86 1012.7
20260507075503 40 0 0.0 0.0 0.00 0.31 0.00 86 1012.8
20260507075003 40 0 0.0 0.0 0.00 0.31 0.00 86 1012.9
20260507074003 41 0 0.0 0.0 0.00 0.33 0.00 85 1012.8
20260507073503 41 0 0.0 0.0 0.00 0.33 0.00 85 1012.7
20260507072503 41 0 0.0 0.0 0.00 0.35 0.00 84 1012.7
20260507072003 41 0 0.0 0.0 0.00 0.36 0.00 84 1012.7
20260507071504 41 0 0.0 0.0 0.00 0.37 0.00 83 1012.9
20260507071003 42 0 0.0 0.0 0.00 0.37 0.00 83 1012.8
20260507070504 42 0 0.0 0.0 0.00 0.38 0.00 83 1012.7
20260507070007 42 0 0.0 0.0 0.00 0.38 0.00 83 1012.8
20260507065503 42 0 0.0 0.0 0.00 0.39 0.00 82 1012.9
20260507065003 42 0 0.0 0.0 0.00 0.39 0.00 82 1012.9
20260507064504 42 0 0.0 0.0 0.00 0.40 0.00 82 1012.9
20260507064004 42 0 0.0 0.0 0.00 0.41 0.00 82 1012.9
20260507063504 42 0 0.0 0.0 0.00 0.42 0.00 81 1013.1
20260507063003 42 0 0.0 0.0 0.00 0.43 0.00 80 1013.2
20260507062504 42 0 0.0 0.0 0.00 0.44 0.00 79 1013.1
20260507062004 43 0 0.0 0.0 0.00 0.45 0.00 78 1013.1
20260507061503 43 0 0.0 0.0 0.00 0.45 0.00 76 1013.2
20260507061004 43 0 0.0 0.0 0.00 0.46 0.00 75 1013.2
20260507060504 44 0 0.0 0.0 0.00 0.46 0.00 75 1013.2
20260507060004 44 0 0.0 0.0 0.00 0.47 0.00 74 1013.3
20260507055504 44 0 0.0 0.0 0.00 0.47 0.00 72 1013.3
20260507055004 44 0 0.0 0.0 0.00 0.48 0.00 73 1013.1
20260507054504 44 0 0.0 0.0 0.00 0.48 0.00 72 1013.4
20260507054004 44 0 0.0 0.0 0.00 0.49 0.00 73 1013.4
20260507053504 45 0 0.0 0.0 0.00 0.49 0.00 72 1013.4
20260507053004 45 0 0.0 0.0 0.00 0.49 0.00 71 1013.4
20260507052504 45 0 0.0 0.0 0.00 0.50 0.00 71 1013.5
20260507052003 45 0 0.0 0.0 0.00 0.52 0.00 70 1013.4
20260507051003 46 0 0.0 0.0 0.00 0.53 0.00 69 1013.3
20260507050503 46 0 0.0 0.0 0.00 0.54 0.00 68 1013.3
20260507050003 46 0 0.0 0.0 0.00 0.54 0.00 68 1013.5
20260507045503 46 0 0.0 0.0 0.00 0.54 0.00 66 1013.5
20260507045003 46 0 0.0 0.0 0.00 0.55 0.00 66 1013.4
20260507044503 46 0 0.0 0.0 0.00 0.55 0.00 64 1013.4
20260507044004 46 0 0.0 0.0 0.00 0.55 0.00 63 1013.6
20260507043504 47 0 0.0 0.0 0.00 0.56 0.00 63 1013.6
20260507043004 47 0 0.0 0.0 0.00 0.56 0.00 62 1013.7
20260507042003 47 0 0.0 0.0 0.00 0.57 0.00 63 1013.7
20260507041503 47 0 0.0 0.0 0.00 0.58 0.00 63 1013.7